Location: Bohy
(49.9380°N, 13.5753°E)
Time: 23:54:25
(UTC+00:00)

Nadezhda 1 Rocket - Pass Details

Date: 19 May 2025
Orbit: 941 x 1003 km, 83.0° (Epoch: 22 June)

Event Time Altitude Azimuth Distance (km) Brightness Sun altitude
Rises 19:48:04 0° 184° (S) 3,597 6.6 -8.0°
Reaches altitude 10° 19:50:32 10° 183° (S) 2,660 5.9 -8.3°
Maximum altitude 19:56:36 82° 97° (E) 970 4.0 -9.0°
Drops below altitude 10° 20:02:48 10° 11° (N) 2,713 6.9 -9.6°
Sets 20:05:20 0° 11° (N) 3,673 7.6 -9.9°
